Wind_Speed
62 59 56 54 51 50 49 49 48 47 46 44 42 39 35 34 34 35 37 40 44 46 46 45 43 42 42 48 58 73 86 92 92 89 87 85 82 75 72 72 73 72 71
61 58 55 53 52 51 50 50 50 49 47 46 43 39 35 32 31 32 34 36 40 43 44 43 42 40 40 42 48 59 73 86 91 90 88 86 84 80 75 73 72 72 71
60 57 54 53 52 52 52 52 52 51 50 48 44 40 35 32 30 30 31 33 36 40 42 42 41 39 38 39 42 49 60 73 85 89 88 86 85 82 78 74 73 73 72
59 56 55 54 55 56 56 56 56 55 54 51 47 42 36 31 29 28 28 30 33 36 40 41 40 39 37 37 38 42 49 59 71 80 84 84 84 83 81 77 75 74 73
59 57 56 57 58 59 59 59 60 61 59 53 46 39 33 28 26 26 26 27 30 34 38 39 40 38 37 37 37 39 43 50 59 67 74 78 81 82 80 77 76 75 74
59 58 58 59 60 60 61 62 64 62 57 49 39 31 26 23 23 23 24 25 28 32 36 38 39 38 37 36 36 37 40 44 50 57 63 68 74 77 78 76 74 74 74
59 58 59 61 61 62 63 66 67 62 52 40 29 20 17 18 19 20 22 23 26 31 35 38 38 38 37 36 36 36 37 40 45 50 55 60 65 71 73 73 73 72 71
59 59 61 63 63 64 66 69 68 59 46 32 20 11 9 13 16 18 20 21 24 30 34 37 38 38 37 36 35 35 36 38 42 46 49 52 56 60 64 67 67 68 68
59 61 63 64 65 66 68 71 68 57 43 30 17 6 4 9 13 15 18 19 22 28 33 37 38 38 38 37 35 35 34 35 37 40 44 48 52 54 58 61 63 64 64
60 62 64 66 67 68 69 72 68 57 44 31 18 8 0 6 9 12 15 17 21 26 32 36 39 39 39 37 36 35 35 34 34 35 38 42 47 52 56 58 59 59 60
61 63 65 66 68 68 69 72 69 59 46 33 21 12 5 1 5 8 11 15 19 25 30 35 38 40 40 39 37 36 35 35 34 33 35 36 39 44 49 54 55 57 56
61 62 64 66 67 68 68 69 69 61 50 36 25 16 9 4 1 3 6 11 16 22 28 33 38 40 41 41 39 38 36 35 35 36 35 36 37 40 43 46 51 53 52
60 61 62 65 67 68 68 68 68 65 56 44 31 22 14 9 5 3 3 7 12 19 25 31 36 40 42 43 42 40 39 37 37 38 38 38 40 42 44 47 49 51 53
59 60 61 63 66 68 68 68 68 67 63 53 42 29 20 14 9 5 3 4 8 14 21 28 34 39 42 43 43 42 41 40 39 39 40 40 41 43 46 47 49 50 51
57 58 60 62 64 66 68 69 68 67 66 62 52 42 30 20 14 9 5 3 5 10 17 23 30 36 40 43 44 44 44 42 42 41 41 41 42 43 45 46 47 49 50
55 56 58 60 62 64 66 67 68 67 65 63 60 53 44 34 24 16 11 6 4 6 12 19 25 33 38 42 44 45 45 45 44 43 43 43 43 44 45 46 47 47 48
53 55 56 58 60 62 64 65 66 65 64 63 60 58 54 47 38 28 19 12 7 4 8 14 21 28 35 40 43 45 46 47 46 46 45 44 44 45 45 46 47 46 47
51 53 54 56 58 59 61 63 64 64 64 63 61 59 57 54 49 42 33 23 14 8 5 9 15 23 31 37 41 44 46 47 48 48 47 47 46 46 46 47 47 47 47
49 50 52 53 55 57 58 60 61 63 63 63 62 60 58 55 53 50 45 37 27 17 9 6 10 17 24 33 38 42 45 47 49 49 50 49 48 48 48 48 48 48 48
47 48 49 51 52 54 55 57 58 60 61 62 61 60 59 56 54 52 49 45 40 32 22 12 6 10 17 25 33 39 43 46 48 50 50 51 51 50 50 49 49 49 49
45 46 47 49 50 51 53 54 56 57 58 59 60 60 60 58 56 53 51 48 45 41 35 27 17 7 9 17 25 33 40 44 47 49 51 52 52 52 52 52 51 51 51
44 44 45 46 48 49 50 52 53 54 56 57 58 58 58 58 57 55 53 50 47 44 42 37 31 22 11 7 15 25 33 40 45 49 50 52 52 53 53 53 53 53 53
42 43 44 45 46 47 48 49 51 52 53 55 55 56 56 56 56 56 54 52 49 46 43 40 37 32 25 15 6 12 23 32 40 46 50 52 53 53 54 53 53 52 53
41 42 43 44 45 46 47 48 49 50 51 52 53 54 54 54 54 54 54 53 51 48 45 41 38 35 32 26 18 9 9 19 30 39 46 50 53 54 54 54 54 52 52
39 40 41 43 44 45 46 47 48 48 49 50 51 51 52 52 52 52 52 52 51 50 47 43 40 37 34 30 26 20 12 7 15 26 37 45 50 54 55 55 54 53 52
37 39 40 41 43 44 45 46 47 47 48 48 49 49 49 50 50 50 50 50 50 50 48 45 42 39 35 32 29 25 20 14 8 12 22 33 43 49 53 55 55 55 53
Wind_Direction
338 337 336 335 333 331 329 327 325 323 321 319 316 310 300 287 274 262 253 245 240 237 236 237 239 240 239 235 231 227 223 220 218 218 220 220 220 220 223 225 226 228 229
340 339 339 337 336 333 331 328 326 323 321 318 316 311 304 291 277 264 253 244 238 234 233 233 235 236 236 233 230 227 225 222 219 217 218 220 221 221 221 223 225 227 228
343 342 341 340 337 335 332 329 326 323 320 316 313 309 303 293 279 266 254 242 236 231 229 229 230 232 232 231 229 227 225 223 221 218 218 220 221 222 222 223 224 226 228
345 345 343 341 339 336 333 330 327 324 320 314 309 304 297 289 278 266 254 240 232 228 225 225 226 227 228 228 227 224 222 222 222 221 219 220 222 222 223 224 224 226 228
348 347 346 344 341 338 335 331 328 325 320 315 307 299 290 280 271 261 251 238 228 223 220 220 221 223 224 224 224 222 219 219 220 221 221 221 222 223 224 225 226 227 228
351 350 348 346 343 341 338 336 333 329 324 318 309 296 282 269 260 253 247 235 224 218 215 214 216 218 219 220 221 220 217 216 217 219 220 221 221 223 224 225 226 228 229
353 351 350 349 348 345 343 342 339 336 332 326 316 297 273 255 247 243 240 232 220 213 211 209 210 212 215 216 217 217 216 215 214 216 217 218 219 221 223 225 227 229 230
354 354 354 353 352 350 349 348 347 346 344 341 333 309 261 239 232 231 232 227 217 210 207 205 206 208 210 213 214 214 214 214 214 215 216 216 217 219 221 223 225 227 229
357 358 358 357 357 356 355 356 356 356 356 357 357 349 241 223 220 224 226 221 215 209 204 202 202 204 206 208 210 209 208 210 211 213 215 214 214 214 216 218 220 222 225
1 1 1 2 2 1 1 2 3 4 5 8 12 21 119 210 214 219 222 216 212 208 203 201 200 201 202 204 206 206 205 206 208 208 209 210 211 210 212 213 215 217 220
3 3 4 5 6 6 7 7 9 10 11 14 19 28 41 187 219 223 221 215 212 209 204 201 200 200 201 202 204 204 203 202 203 203 202 203 204 205 207 208 209 210 214
5 5 6 8 10 11 12 12 14 15 17 20 24 31 36 35 344 257 236 224 216 212 207 203 201 201 201 202 203 203 202 201 201 201 200 200 200 200 201 201 203 205 209
7 7 8 10 12 14 16 17 18 20 22 25 27 31 35 34 25 348 267 233 220 215 212 207 205 203 203 203 203 204 203 202 202 201 201 199 197 196 195 196 198 201 205
8 9 10 13 14 16 18 20 21 23 26 27 29 30 32 32 28 13 327 258 231 220 216 212 209 207 206 205 205 205 204 204 204 204 203 202 201 200 199 199 198 199 201
10 10 12 15 17 18 20 22 23 25 27 29 30 31 31 30 28 22 5 314 252 228 221 217 214 212 210 208 207 207 206 205 205 205 206 206 205 204 204 204 203 202 203
11 12 14 17 18 20 21 23 25 26 28 29 31 32 32 31 29 24 17 1 307 245 227 221 218 215 214 212 211 210 209 208 208 208 207 208 209 209 209 209 209 210 209
12 13 15 18 20 21 23 25 26 27 28 29 31 32 33 33 32 29 23 14 356 297 243 230 224 220 217 215 214 214 213 212 211 210 210 210 210 211 212 212 213 214 215
12 13 16 18 20 22 23 25 26 27 28 29 30 32 33 33 34 33 31 25 15 352 293 246 232 225 221 218 217 217 216 215 214 213 212 212 213 213 213 214 215 216 217
12 13 16 18 20 21 23 24 26 27 28 29 30 31 31 32 33 33 33 32 28 20 358 297 249 233 226 222 220 220 219 219 218 217 216 215 215 216 216 216 217 218 219
11 13 15 17 19 20 22 24 25 26 27 28 29 30 30 31 32 32 32 33 32 30 25 9 312 251 235 227 224 222 221 221 220 220 220 219 219 219 219 219 220 221 221
11 13 14 16 17 19 20 22 24 25 26 27 27 28 29 29 30 30 30 31 31 31 30 27 19 338 259 238 229 225 224 223 222 222 222 222 222 222 222 222 223 224 224
11 12 13 15 16 17 18 20 22 23 24 25 26 26 27 27 28 28 28 29 29 30 30 30 28 24 6 278 242 231 227 225 224 223 223 223 223 223 224 224 225 226 226
11 12 13 13 14 15 16 18 19 21 22 23 24 24 24 25 25 26 26 26 26 26 27 27 28 27 25 15 321 249 234 229 226 225 224 224 224 224 224 225 226 226 227
9 11 12 13 13 13 14 15 16 18 19 20 21 21 22 22 23 23 23 24 24 24 24 24 24 25 25 23 17 351 265 239 231 228 226 225 224 224 225 225 226 226 227
6 8 9 11 12 12 12 13 14 15 16 17 18 18 19 19 20 20 21 21 21 21 21 21 20 21 21 21 19 15 0 297 245 234 229 227 226 225 224 224 225 225 226
1 3 6 7 8 9 10 10 11 12 13 14 15 16 16 17 17 18 18 19 19 19 19 18 18 17 17 17 16 15 11 360 319 256 236 230 227 226 225 224 224 224 224
Height
5505 5492 5479 5468 5457 5447 5438 5428 5419 5410 5402 5394 5386 5380 5375 5372 5370 5371 5374 5378 5382 5389 5396 5403 5409 5415 5419 5425 5432 5443 5457 5474 5494 5514 5527 5542 5555 5569 5583 5595 5606 5617 5628
5498 5485 5472 5461 5450 5440 5429 5419 5409 5399 5390 5382 5374 5368 5363 5359 5357 5358 5360 5364 5369 5375 5383 5390 5397 5403 5408 5413 5420 5428 5440 5455 5475 5495 5510 5523 5539 5553 5567 5579 5590 5602 5613
5491 5478 5466 5454 5443 5432 5420 5409 5398 5387 5377 5368 5361 5355 5351 5347 5345 5345 5347 5352 5357 5363 5371 5378 5385 5392 5398 5404 5410 5418 5428 5441 5457 5476 5493 5507 5522 5537 5551 5563 5575 5586 5598
5486 5473 5460 5448 5436 5423 5410 5397 5385 5373 5362 5352 5345 5339 5336 5334 5333 5334 5336 5340 5346 5352 5359 5367 5375 5382 5389 5395 5401 5408 5417 5428 5442 5459 5476 5491 5505 5520 5534 5547 5559 5571 5583
5481 5468 5455 5442 5428 5414 5400 5386 5371 5357 5342 5331 5324 5320 5319 5320 5321 5322 5325 5329 5335 5341 5348 5357 5365 5373 5380 5387 5394 5400 5409 5419 5431 5445 5461 5475 5489 5503 5518 5532 5544 5556 5567
5477 5464 5450 5436 5422 5406 5390 5374 5357 5339 5323 5310 5303 5301 5303 5306 5309 5312 5314 5320 5325 5332 5339 5348 5356 5365 5373 5380 5387 5394 5402 5411 5422 5433 5446 5460 5474 5488 5502 5515 5528 5541 5554
5474 5461 5447 5431 5415 5398 5381 5363 5342 5322 5305 5293 5287 5287 5290 5294 5298 5302 5306 5311 5317 5323 5331 5340 5349 5358 5366 5373 5380 5388 5395 5403 5413 5423 5434 5445 5459 5475 5490 5504 5515 5526 5539
5473 5458 5443 5427 5410 5392 5374 5354 5331 5310 5293 5283 5278 5278 5281 5285 5290 5294 5298 5304 5310 5316 5324 5332 5342 5350 5359 5367 5374 5382 5389 5397 5405 5415 5426 5438 5449 5462 5476 5489 5501 5513 5524
5471 5456 5441 5424 5407 5388 5369 5348 5325 5305 5290 5280 5276 5275 5277 5281 5285 5289 5293 5299 5304 5310 5317 5326 5335 5344 5353 5361 5368 5376 5383 5391 5398 5407 5416 5427 5438 5451 5463 5475 5486 5498 5509
5470 5455 5439 5422 5404 5386 5366 5346 5324 5305 5291 5282 5278 5276 5277 5279 5283 5286 5290 5295 5300 5305 5312 5320 5329 5338 5346 5354 5363 5371 5378 5385 5393 5401 5409 5418 5429 5439 5450 5461 5474 5486 5496
5469 5455 5439 5423 5406 5387 5368 5348 5328 5309 5296 5287 5282 5280 5280 5281 5283 5286 5289 5292 5297 5302 5308 5316 5323 5331 5340 5348 5357 5365 5373 5380 5388 5396 5404 5412 5421 5430 5440 5451 5462 5475 5486
5471 5457 5442 5426 5409 5392 5373 5355 5337 5318 5305 5294 5288 5285 5284 5285 5286 5287 5289 5292 5295 5300 5305 5311 5318 5326 5334 5342 5351 5359 5367 5375 5383 5391 5399 5407 5415 5424 5433 5443 5453 5465 5475
5474 5460 5445 5430 5414 5397 5380 5363 5346 5329 5314 5303 5295 5291 5289 5288 5288 5289 5290 5291 5294 5298 5302 5308 5314 5321 5329 5337 5345 5354 5362 5370 5378 5386 5394 5402 5410 5418 5427 5436 5446 5456 5466
5477 5464 5450 5435 5419 5403 5388 5372 5356 5340 5325 5312 5304 5298 5295 5292 5292 5291 5291 5292 5294 5296 5300 5305 5311 5317 5324 5332 5340 5348 5356 5365 5373 5380 5389 5397 5405 5413 5421 5429 5438 5448 5457
5481 5468 5455 5440 5425 5410 5394 5379 5364 5349 5335 5324 5315 5307 5301 5298 5295 5294 5293 5293 5294 5295 5298 5302 5307 5314 5320 5327 5335 5343 5351 5359 5367 5375 5383 5391 5399 5407 5415 5423 5431 5439 5448
5486 5473 5460 5446 5432 5418 5403 5389 5375 5362 5349 5337 5327 5317 5309 5304 5299 5297 5295 5294 5294 5294 5297 5299 5303 5309 5315 5322 5329 5337 5345 5353 5361 5369 5377 5384 5392 5400 5408 5416 5424 5432 5440
5489 5477 5465 5452 5440 5427 5414 5400 5387 5374 5362 5350 5339 5329 5321 5313 5306 5301 5298 5296 5295 5294 5295 5297 5300 5304 5310 5316 5323 5330 5338 5346 5354 5362 5370 5378 5385 5393 5401 5409 5417 5425 5432
5492 5482 5470 5459 5447 5435 5423 5410 5398 5386 5375 5363 5352 5342 5332 5324 5316 5309 5303 5299 5297 5295 5294 5295 5297 5300 5304 5310 5316 5323 5331 5338 5346 5354 5362 5370 5378 5386 5393 5401 5409 5416 5424
5497 5487 5476 5464 5453 5442 5431 5419 5408 5396 5385 5374 5363 5353 5344 5335 5326 5319 5312 5306 5300 5297 5295 5294 5294 5296 5299 5304 5309 5316 5323 5330 5338 5346 5353 5361 5369 5377 5385 5393 5400 5408 5415
5500 5490 5480 5470 5460 5449 5439 5428 5417 5406 5396 5385 5374 5364 5355 5345 5337 5329 5321 5314 5307 5302 5297 5294 5293 5293 5295 5298 5303 5308 5315 5321 5329 5336 5344 5352 5360 5367 5375 5383 5390 5398 5405
5503 5494 5485 5475 5465 5456 5446 5435 5425 5415 5404 5394 5384 5374 5364 5355 5346 5338 5330 5322 5315 5308 5302 5298 5294 5292 5292 5293 5296 5300 5306 5312 5319 5326 5334 5341 5349 5357 5364 5372 5380 5387 5395
5506 5498 5489 5480 5471 5461 5452 5442 5432 5422 5412 5402 5392 5383 5373 5364 5355 5347 5338 5330 5323 5316 5309 5303 5298 5294 5291 5290 5291 5293 5297 5302 5309 5316 5323 5330 5338 5346 5353 5361 5368 5376 5384
5509 5501 5492 5483 5475 5466 5457 5448 5438 5429 5419 5410 5400 5391 5382 5373 5364 5355 5346 5338 5330 5323 5316 5310 5304 5298 5294 5290 5288 5289 5290 5294 5298 5304 5311 5318 5326 5333 5341 5349 5356 5364 5372
5512 5504 5495 5487 5478 5470 5462 5453 5443 5434 5425 5416 5407 5398 5389 5380 5371 5362 5354 5345 5337 5330 5322 5315 5309 5303 5298 5293 5289 5286 5286 5287 5289 5293 5299 5306 5313 5320 5328 5336 5344 5352 5359
5514 5506 5498 5490 5482 5474 5465 5457 5448 5439 5430 5421 5412 5403 5395 5386 5377 5369 5360 5352 5343 5335 5328 5320 5314 5307 5301 5296 5291 5287 5284 5282 5282 5284 5288 5293 5299 5307 5314 5322 5331 5339 5347
5515 5508 5500 5492 5484 5477 5468 5460 5451 5443 5434 5425 5417 5408 5400 5392 5383 5374 5366 5357 5349 5341 5333 5325 5318 5311 5304 5299 5293 5288 5284 5280 5278 5277 5278 5281 5286 5293 5300 5308 5317 5325 5334